Location: Bordes
(43.2333°N, 0.2833°W)
Time: 05:19:27
(UTC+00:00)

Daily predictions for brighter satellites

Satellite Brightness Start Highest point End
(mag) Time Altitude Azimuth Time Altitude Azimuth Time Altitude Azimuth
SJ 16-02 3.9 00:09:53 16° NE 00:09:53 16° NE 00:10:57 10° NE
SL-16 R/B 3.1 00:08:45 10° NNW 00:13:48 43° NE 00:13:48 43° NE
Nadezhda 4 Rocket 4.3 00:10:29 10° N 00:15:44 62° NW 00:15:44 62° NW
Cosmos 2297 Rocket 2.8 00:28:54 53° N 00:28:54 53° N 00:33:22 10° NNE
Cosmos 2344 4.4 00:23:44 10° NW 00:33:34 85° SW 00:38:10 48° SSE
USA 229 DEB 4.4 00:36:45 40° E 00:36:45 40° E 00:41:52 10° NE
USA 229 4.4 00:36:53 40° E 00:36:53 40° E 00:41:58 10° NE
Cosmos 1092 Rocket 4.2 00:31:17 10° N 00:36:34 66° NNW 00:36:34 66° NNW
Cosmos 2219 4.0 00:41:47 43° NW 00:41:47 43° NW 00:46:29 10° NNE
Cosmos 2237 Rocket 3.6 00:38:15 10° NW 00:41:12 28° WNW 00:41:12 28° WNW
Cosmos 1680 Rocket 4.3 00:47:31 10° NNW 00:51:28 48° NNE 00:51:28 48° NNE
CZ-2D R/B 3.2 01:03:20 10° NNE 01:08:00 38° E 01:08:00 38° E
SL-16 R/B 3.1 01:09:26 46° ESE 01:10:35 52° ENE 01:16:37 10° N
Cosmos 1655 Rocket 4.1 01:11:53 10° N 01:18:06 65° E 01:18:27 64° E
Cosmos 2227 Rocket 3.3 01:18:31 33° NW 01:18:31 33° NW 01:23:38 10° N
Meteor 1-22 Rocket 4.4 01:25:04 64° NNE 01:25:04 64° NNE 01:29:37 10° N
Meteor 2-5 Rocket 4.1 01:20:37 10° NNW 01:25:04 55° NW 01:25:04 55° NW
NPP 4.3 01:22:06 10° NNE 01:27:04 47° E 01:27:04 47° E
Helios 1B rocket 4.5 01:24:03 10° N 01:25:58 23° NNW 01:25:58 23° NNW
Cosmos 2279 Rocket 4.0 01:29:43 69° WNW 01:29:43 69° WNW 01:35:41 10° N
Exosat Rocket 4.5 01:36:53 58° SSE 01:38:16 70° ESE 01:44:29 10° NNE
Cosmos 2180 Rocket 4.4 01:39:58 73° WNW 01:39:58 73° WNW 01:46:04 10° N
Resurs 1-4 Rocket 2.2 01:36:41 10° NNE 01:41:36 73° ENE 01:41:36 73° ENE
NOSS 2-3 (E) 4.3 01:44:48 53° NE 01:44:48 53° NE 01:48:40 10° NE
Cosmos 2227 4.3 01:44:00 71° ESE 01:44:00 71° ESE 01:49:42 10° NNE
Cosmos 2098 Rocket 3.9 01:39:53 10° N 01:45:41 82° E 01:46:33 68° SSE
SJ 16-02 3.1 01:46:52 25° NW 01:46:52 25° NW 01:49:34 10° N
NOSS 3-1 (C) 3.6 01:48:09 54° WNW 01:48:33 55° NW 01:54:48 10° NNE
Meteor 2-19 Rocket 4.5 01:49:33 10° NNW 01:55:33 62° W 01:55:33 62° W
Cosmos 2263 Rocket 2.0 01:56:40 80° SE 01:56:44 81° ESE 02:02:19 10° NNE
SL-16 R/B 3.9 01:53:17 10° NW 01:55:38 21° WNW 01:55:38 21° WNW
Cosmos 724 4.3 01:58:12 10° NW 02:03:52 66° W 02:03:52 66° W
Cosmos 372 Rocket 3.9 02:04:37 74° ESE 02:04:43 74° ESE 02:09:58 10° NNE
Cosmos 1937 Rocket 3.9 02:07:18 51° WNW 02:07:18 51° WNW 02:12:25 10° N
NOSS 2-3 (D) 4.0 02:08:30 57° NNW 02:08:30 57° NNW 02:13:02 10° NNE
COBE Rocket 3.8 02:08:32 75° ENE 02:08:32 75° ENE 02:13:10 10° N
Cosmos 1809 Rocket 4.4 02:05:22 10° N 02:11:31 82° E 02:13:15 50° SSE
Cosmos 1455 Rocket 4.0 02:12:38 39° NW 02:12:38 39° NW 02:15:57 10° N
Cosmos 2285 Rocket 4.4 02:10:59 42° SSE 02:12:45 55° ESE 02:18:52 10° NNE
Cosmos 2297 Rocket 4.5 02:10:42 11° WNW 02:12:55 13° NW 02:15:29 10° NNW
ATLAS CENTAUR R/B 2.2 02:13:46 44° E 02:13:46 44° E 02:16:52 10° NE
Cosmos 1726 3.2 02:14:19 42° NNE 02:14:19 42° NNE 02:16:52 10° NNE
Cosmos 1626 Rocket 3.7 02:09:13 10° N 02:13:03 67° NNE 02:13:03 67° NNE
ADEOS II 2.4 02:08:23 10° NNE 02:13:36 59° E 02:14:31 51° SE
CZ-4B R/B 3.2 02:11:45 10° NNE 02:16:32 81° ESE 02:16:40 80° SE
Cosmos 1844 Rocket 4.3 02:17:42 20° SE 02:20:02 26° ESE 02:24:35 10° NE
Cosmos 2266 Rocket 4.1 02:16:15 10° NNW 02:22:22 54° W 02:22:57 52° WSW
USA 229 DEB 4.4 02:24:11 32° W 02:26:29 42° NW 02:33:00 10° NNE
USA 229 4.4 02:24:19 32° W 02:26:35 42° NW 02:33:06 10° NNE
GEOS 3 Rocket 3.9 02:21:59 10° NNE 02:27:20 62° NW 02:28:25 51° W
Meteor 2-10 4.1 02:27:12 62° SSW 02:28:08 79° W 02:33:52 10° N
Cosmos 2084 3.4 02:28:47 86° ENE 02:28:47 86° ENE 02:33:09 10° NE
Meteor 1-21 Rocket 4.1 02:24:28 10° N 02:30:03 89° W 02:31:40 48° S
Meteor 2-21 4.3 02:24:02 10° N 02:30:08 83° W 02:32:12 44° S
CBERS-1 3.9 02:25:13 10° NNE 02:30:22 87° WNW 02:31:10 64° SSW
ARIANE 5 R/B 3.3 02:28:54 10° NNE 02:33:58 48° E 02:36:11 30° SSE
Cosmos 1932 4.4 02:28:00 10° NW 02:34:30 81° WSW 02:40:49 10° SSE
Cosmos 1758 Rocket 4.3 02:32:06 10° N 02:36:20 50° ENE 02:38:14 29° SE
NOSS 3-1 (A) 4.0 02:36:02 34° W 02:37:46 42° NW 02:43:52 10° NNE
Cosmos 1603 3.8 02:33:25 10° NW 02:38:56 50° WSW 02:39:05 49° WSW
Cosmos 2150 Rocket 3.9 02:42:28 57° SW 02:43:31 77° WNW 02:48:48 10° NNE
MINOTAUR IV R/B 4.4 02:40:53 10° NNW 02:45:23 81° WSW 02:46:15 57° S
H-2A R/B 4.3 02:43:43 10° ESE 02:46:58 23° ENE 02:50:14 10° NNE
CZ-2D R/B 3.2 02:43:38 10° N 02:48:21 31° WNW 02:49:19 29° W
Cosmos 1703 3.2 02:47:56 10° N 02:51:55 82° E 02:52:42 56° SSE
SL-16 R/B 3.5 02:54:31 27° W 02:54:31 27° W 02:59:39 10° NW
Cosmos 1825 Rocket 3.9 02:50:37 10° N 02:54:55 63° E 02:57:30 23° SSE
Cosmos 1125 Rocket 3.4 02:54:00 43° SSW 02:55:46 89° ESE 03:01:05 10° NNE
Cosmos 1943 3.5 02:52:07 10° NW 02:57:21 41° WSW 02:57:52 40° WSW
Cosmos 1953 3.2 02:59:36 35° WNW 02:59:36 35° WNW 03:03:10 10° N
Nadezhda 2 Rocket 4.4 02:53:50 10° NNW 02:59:56 62° W 03:02:51 31° SSW
USA 215 3.4 02:53:59 10° NE 03:00:29 63° SE 03:03:50 30° SSW
IRS-1C 4.1 02:56:21 10° N 03:01:42 75° WNW 03:03:51 37° SSW
IRS-1D 4.1 02:59:57 10° N 03:04:44 42° WNW 03:06:07 34° WSW
Cosmos 1328 3.6 03:01:45 10° N 03:05:45 82° W 03:07:02 42° S
Cosmos 1953 Rocket 4.2 03:01:58 10° N 03:06:24 56° E 03:10:46 10° SSE
CZ-2D R/B 3.4 03:07:12 10° NNE 03:11:12 74° ESE 03:12:51 34° S
OAO 2 Rocket 4.3 03:10:53 30° SSW 03:11:47 32° S 03:16:26 10° ESE
Meteor 2-8 Rocket 4.4 03:15:17 24° SSW 03:19:08 75° W 03:25:16 10° N
Resurs 1-4 Rocket 3.9 03:18:07 10° NNW 03:21:08 16° WNW 03:22:40 14° WNW
Cosmos 1606 Rocket 3.5 03:19:25 32° SSW 03:21:26 72° W 03:25:54 10° N
Atlas Centaur 2 3.5 03:20:39 23° SSW 03:22:40 27° S 03:28:45 10° ESE
NOSS 2-2 (E) 3.1 03:22:46 39° SSW 03:23:59 75° ESE 03:27:51 10° NE
NOSS 2-2 (D) 3.5 03:23:30 32° S 03:24:53 57° ESE 03:28:36 10° NE
IDEFIX/ARIANE 42P 2.5 03:25:08 10° N 03:30:22 80° WNW 03:34:08 19° SSW
Cosmos 1908 4.2 03:31:23 28° W 03:32:08 30° WNW 03:35:38 10° NNW
USA 267 4.2 03:25:53 10° ESE 03:32:08 51° NNE 03:38:24 10° NW
Cosmos 1726 Rocket 3.6 03:33:33 24° SSW 03:36:08 63° W 03:40:34 10° N
MSX 3.9 03:30:30 10° NNE 03:36:18 81° ESE 03:42:02 10° SSW
Cosmos 2228 3.4 03:36:22 26° SW 03:38:25 45° WNW 03:42:40 10° N
Helios 1B 4.5 03:35:04 10° S 03:39:23 80° WSW 03:43:45 10° NNW
Cosmos 2315 Rocket 4.5 03:33:59 10° S 03:40:13 64° E 03:46:31 10° NNE
Cosmos 2263 Rocket 3.9 03:38:22 12° W 03:41:21 18° NW 03:45:08 10° N
Cosmos 1844 3.7 03:37:25 19° SSW 03:41:44 85° WNW 03:47:32 10° NNE
Meteor 1-28 Rocket 4.2 03:41:32 25° WSW 03:41:59 26° W 03:45:13 10° NW
SL-08 R/B 4.3 03:44:25 21° SW 03:46:42 29° W 03:51:01 10° NW
Cosmos 1386 Rocket 4.4 03:41:47 10° NNW 03:47:42 62° W 03:53:37 10° S
Cosmos 1356 Rocket 3.8 03:46:41 22° SW 03:49:00 44° WNW 03:52:56 10° N
CZ-2C R/B 2.7 03:46:05 10° N 03:49:51 63° WNW 03:52:32 18° SSW
ATLAS CENTAUR R/B 3.1 03:49:57 13° W 03:52:07 19° NW 03:54:58 10° N
Cosmos 1300 2.8 03:49:35 19° SSW 03:52:08 54° W 03:55:54 10° N
ADEOS II 3.6 03:49:07 10° NNW 03:52:49 20° WNW 03:55:27 14° W
Spot 4 Rocket 4.4 03:49:39 10° N 03:54:34 46° WNW 03:58:31 15° SW
ERS-2 2.0 03:51:43 10° SSE 03:55:21 81° WSW 03:59:02 10° NNW
CZ-4C R/B 3.0 03:55:04 10° S 03:58:15 49° W 04:01:34 10° NNW
Cosmos 1269 Rocket 4.1 03:55:51 10° NNW 04:01:02 56° WSW 04:06:12 10° S
Cosmos 2278 Rocket 3.6 03:57:42 10° S 04:02:50 37° ESE 04:08:00 10° NE
Cosmos 1844 Rocket 3.1 03:59:23 16° SW 04:03:37 46° WNW 04:09:00 10° NNE
COSMOS 2441 4.4 04:00:23 10° N 04:05:08 61° WNW 04:09:53 10° SSW
NOSS 2-2 (C) 3.6 04:05:43 16° WSW 04:08:17 47° NW 04:12:04 10° NNE
Cosmos 1812 Rocket 4.5 04:04:20 10° SSE 04:08:30 49° E 04:12:43 10° NNE
Lacrosse 5 rocket 2.9 04:04:57 10° SSW 04:09:03 35° SE 04:13:15 10° ENE
Cosmos 1833 Rocket 4.4 04:04:43 10° N 04:09:59 38° ENE 04:15:12 10° SE
NOSS 3-2 (A) 4.5 04:04:06 10° NNW 04:11:39 70° NE 04:20:06 10° SE
ARIANE 5 R/B 3.9 04:08:38 10° NNW 04:12:45 24° WNW 04:16:31 11° WSW
USA 281 3.7 04:06:49 10° NNE 04:13:19 61° ESE 04:19:47 10° S
SeaSat 1 2.8 04:11:14 10° NNE 04:16:10 68° ESE 04:21:04 10° SSW
Meteor 2-10 Rocket 4.0 04:14:33 10° S 04:19:43 66° E 04:25:09 10° NNE
H-2A R/B 2.8 04:19:12 10° SSW 04:22:48 30° W 04:26:26 10° NW
Cosmos 2058 Rocket 3.9 04:18:56 10° SW 04:22:56 32° WNW 04:26:55 10° N
Cosmos 1867 3.7 04:19:10 10° NNW 04:24:40 87° ENE 04:30:06 10° SSE
Cosmos 2058 2.9 04:26:55 10° NNW 04:31:07 75° W 04:35:17 10° S
Landsat 5 4.4 04:27:57 10° SSW 04:31:19 26° W 04:34:47 10° NW
CZ-2C R/B 2.4 04:28:14 10° N 04:32:47 61° WNW 04:37:25 10° SSW
DEBRIS 3.2 04:30:54 10° W 04:32:49 28° NNW 04:34:57 10° NE
Cosmos 2074 Rocket 4.4 04:26:55 10° N 04:33:13 71° E 04:39:29 10° SSE
Cosmos 1408 2.7 04:29:44 10° N 04:33:28 85° E 04:37:09 10° S
CZ-4B R/B 1.2 04:33:34 10° S 04:36:45 64° WSW 04:39:52 10° NNW
Cosmos 1892 3.0 04:37:03 10° NNW 04:40:44 46° W 04:44:23 10° SSW
USA 215 3.9 04:37:09 10° NE 04:43:21 47° NNW 04:49:33 10° W
